TimeMST,TemperatureF,Dew PointF,Humidity,Sea Level PressureIn,VisibilityMPH,Wind Direction,Wind SpeedMPH,Gust SpeedMPH,PrecipitationIn,Events,Conditions,WindDirDegrees,DateUTC
12:53 AM,43.0,16.0,34,30.17,10.0,Calm,Calm,-,N/A,,Clear,0,2012-11-04 06:53:00
1:53 AM,37.9,17.1,43,30.19,10.0,East,5.8,-,N/A,,Clear,80,2012-11-04 07:53:00
1:53 AM,39.9,18.0,41,30.19,10.0,ESE,10.4,-,N/A,,Clear,110,2012-11-04 08:53:00
2:53 AM,37.9,17.1,43,30.20,10.0,SE,6.9,-,N/A,,Clear,130,2012-11-04 09:53:00
3:53 AM,35.1,17.1,48,30.21,10.0,East,5.8,-,N/A,,Clear,100,2012-11-04 10:53:00
4:53 AM,34.0,17.1,50,30.25,10.0,ESE,3.5,-,N/A,,Clear,110,2012-11-04 11:53:00
5:53 AM,30.9,17.1,57,30.28,10.0,East,5.8,-,N/A,,Clear,100,2012-11-04 12:53:00
6:53 AM,34.0,18.0,52,30.30,10.0,East,4.6,-,N/A,,Clear,80,2012-11-04 13:53:00
7:53 AM,37.9,19.9,48,30.34,10.0,ESE,10.4,-,N/A,,Clear,120,2012-11-04 14:53:00
8:53 AM,46.9,19.0,33,30.32,10.0,SSE,10.4,-,N/A,,Clear,160,2012-11-04 15:53:00
9:53 AM,46.9,19.9,34,30.32,10.0,SSW,4.6,-,N/A,,Clear,200,2012-11-04 16:53:00
10:53 AM,52.0,21.0,30,30.31,10.0,Calm,Calm,-,N/A,,Clear,0,2012-11-04 17:53:00
11:53 AM,57.0,21.0,25,30.27,10.0,Calm,Calm,-,N/A,,Clear,0,2012-11-04 18:53:00
12:53 PM,60.1,19.0,20,30.25,10.0,WNW,4.6,-,N/A,,Clear,300,2012-11-04 19:53:00
1:53 PM,63.0,19.0,18,30.21,10.0,NW,5.8,-,N/A,,Clear,310,2012-11-04 20:53:00
2:53 PM,63.0,19.9,19,30.21,10.0,WNW,6.9,-,N/A,,Clear,300,2012-11-04 21:53:00
3:53 PM,62.1,21.9,21,30.23,10.0,West,6.9,-,N/A,,Clear,280,2012-11-04 22:53:00
4:53 PM,59.0,23.0,25,30.24,10.0,WNW,6.9,-,N/A,,Clear,300,2012-11-04 23:53:00
5:53 PM,54.0,21.0,28,30.27,10.0,NNW,4.6,-,N/A,,Clear,330,2012-11-05 00:53:00
6:53 PM,48.9,18.0,29,30.30,10.0,Calm,Calm,-,N/A,,Clear,0,2012-11-05 01:53:00
7:53 PM,46.9,18.0,32,30.30,10.0,NE,4.6,-,N/A,,Clear,50,2012-11-05 02:53:00
8:53 PM,46.9,19.9,34,30.30,10.0,East,5.8,-,N/A,,Clear,80,2012-11-05 03:53:00
9:53 PM,43.0,19.0,38,30.32,10.0,East,3.5,-,N/A,,Clear,80,2012-11-05 04:53:00
10:53 PM,41.0,18.0,40,30.31,10.0,Calm,Calm,-,N/A,,Clear,0,2012-11-05 05:53:00